Location: Altenst�hlen
(53.5567°N, 8.9425°E)
Time: 10:26:07
(UTC+00:00)

Cosmos 2061 Rocket - Pass Details

Date: 23 October 2019
Orbit: 965 x 1013 km, 82.9° (Epoch: 19 November)

Event Time Altitude Azimuth Distance (km) Brightness Sun altitude
Rises 17:48:57 0° 350° (N) 3,696 7.2 -15.2°
Reaches altitude 10° 17:51:33 10° 355° (N) 2,738 6.4 -15.6°
Maximum altitude 17:57:41 54° 73° (ENE) 1,165 4.1 -16.5°
Drops below altitude 10° 18:03:44 10° 150° (SSE) 2,702 6.0 -17.4°
Enters shadow 18:06:01 - 155° (SSE) 3,540 6.6 -17.7°
